Skip Page Navigation
NASA JPL Caltech
NASA Logo - Jet Propulsion Laboratory + View the NASA Portal
+ Center for Near-Earth Object Studies
JPL Home Earth Solar System Stars & Galaxies Technology
JPL Solar System Dynamics
BODIES ORBITS EPHEMERIDES TOOLS PHYSICAL DATA DISCOVERY FAQ SITE MAP
JPL Small-Body Database Browser
Search: [ help ]  
123725 (2000 YU135)
Classification: Main-belt Asteroid          SPK-ID: 2123725
Ephemeris | Orbit Diagram | Orbital Elements | Mission Design | Physical Parameters | Discovery Circumstances ]

[ show orbit diagram ]
Orbital Elements at Epoch 2459000.5 (2020-May-31.0) TDB
Reference: JPL 17 (heliocentric ecliptic J2000)
 Element Value Uncertainty (1-sigma)   Units 
e .1988576734757374 4.386e-08  
a 2.794425131884961 1.7006e-08 au
q 2.238732251456187 1.2048e-07 au
i 5.506089083262847 5.6711e-06 deg
node 91.36195014505412 6.1489e-05 deg
peri 322.3551171927173 6.3692e-05 deg
M 77.91977961947138 1.6878e-05 deg
tp 2458631.197404932385
(2019-May-27.69740493)
7.922e-05 TDB
period 1706.22831421765
4.67
1.5575e-05
4.264e-08
d
yr
n .2109916926124095 1.926e-09 deg/d
Q 3.350118012313735 2.0387e-08 au
  Orbit Determination Parameters
   # obs. used (total)      510  
   data-arc span      10316 days (28.24 yr)  
   first obs. used      1992-01-30  
   last obs. used      2020-04-28  
   planetary ephem.      DE431  
   SB-pert. ephem.      SB431-N16  
   condition code      0  
   norm. resid. RMS      .54471  
   source      ORB  
   producer      Otto Matic  
   solution date      2020-May-20 21:03:15  

Additional Information
 Earth MOID = 1.25331 au 
 Jupiter MOID = 2.01958 au 
 T_jup = 3.292 
[ show covariance matrix ]

Ephemeris | Orbit Diagram | Orbital Elements | Mission Design | Physical Parameters | Discovery Circumstances ]

Physical Parameter Table
Parameter Symbol Value Units Sigma Reference Notes
absolute magnitude H 15.8   n/a MPO333776  
diameter diameter 4.353 km 0.105 urn:nasa:pds:neowise_diameters_albedos::2.0[mainbelt] (http://adsabs.harvard.edu/abs/2011ApJ...741...68M)  
geometric albedo albedo 0.045   0.011 urn:nasa:pds:neowise_diameters_albedos::2.0[mainbelt] (http://adsabs.harvard.edu/abs/2011ApJ...741...68M)  

123725 (2000 YU135)          Discovered 2000-Dec-21 by LINEAR at Socorro
Reference: 20060314/Numbers.arcLast Updated: 2006-03-23
Ephemeris | Orbit Diagram | Orbital Elements | Mission Design | Physical Parameters | Discovery Circumstances ]
ABOUT SSD CREDITS/AWARDS PRIVACY/COPYRIGHT GLOSSARY LINKS
FirstGov 2020-Oct-19 22:56 UT
(server date/time)  
NASA Home Page
Site Manager:   Ryan S. Park
Webmaster  Alan B. Chamberlin